Flag for Canada Weather past 2 weeks in Kawartha Lakes, Ontario, Canada

Now
42 °F

Quite cool.


Feels Like: 36 °F
Forecast: 34 / 48 °F
Wind: 10 mph from South

Location: Lagoon City

Current Time: Oct 20, 2014 at 4:56:34 AM

Latest Report: Oct 20, 2014 at 4:00 AM


Visibility: N/A

Pressure: 29.90 "Hg

Humidity: 81%

Dew point: 36 °F

Location of Kawartha LakesLocation

Historic Weather in Kawartha Lakes — Graph

°F

Kawartha Lakes temperature yesterday

Maximum temperature yesterday: 42 °F (at 5:00 PM)
Minimum temperature yesterday: 35 °F (at 3:00 AM)
Average temperature yesterday: 38 °F

Past Weeks' High & Low Weather Summary

 TemperatureHumidityPressure
High70 °F (Oct 14, 8:00 PM)100% (Oct 12, 8:00 AM)30.27 "Hg (Oct 12, 8:00 AM)
Low35 °F (Oct 19, 3:00 AM)49% (Oct 11, 5:00 PM)29.42 "Hg (Oct 18, 12:00 AM)
Average51 °F80%29.84 "Hg
* Reported Oct 5 3:00 AM — Oct 20 3:00 AM, Kawartha Lakes, Weather by CustomWeather, © 2014

Note: Actual official high and low records may vary slightly from our data, if they occured in-between our weather recording intervals... More about our weather records

Advertising

Kawartha Lakes weather history for previous 24 hours

 ConditionsComfort  
Time TempWeatherWind HumidityBarometerVisibility
3:00 AM
Oct 20
41 °FQuite cool.7 mph84%29.94 "HgN/A
2:00 AM40 °FChilly.3 mph80%29.95 "HgN/A
1:00 AM39 °FChilly.3 mph79%29.96 "HgN/A
11:00 PM
Oct 19
40 °FChilly.6 mph74%29.98 "HgN/A
10:00 PM39 °FChilly.2 mph75%30.00 "HgN/A
9:00 PM38 °FChilly.3 mph75%30.01 "HgN/A
8:00 PM40 °FChilly.3 mph73%30.01 "HgN/A
7:00 PM40 °FQuite cool.3 mph71%30.02 "HgN/A
6:00 PM42 °FQuite cool.5 mph66%30.03 "HgN/A
5:00 PM42 °FQuite cool.9 mph69%30.03 "HgN/A
4:00 PM42 °FQuite cool.10 mph69%30.04 "HgN/A
3:00 PM41 °FQuite cool.14 mph67%30.05 "HgN/A
2:00 PM40 °FQuite cool.9 mph64%30.06 "HgN/A
1:00 PM39 °FChilly.13 mph62%30.08 "HgN/A
12:00 PM38 °FChilly.12 mph62%30.09 "HgN/A
11:00 AM37 °FChilly.9 mph61%30.10 "HgN/A
10:00 AM36 °FChilly.14 mph67%30.10 "HgN/A
9:00 AM36 °FChilly.10 mph69%30.08 "HgN/A
8:00 AM36 °FChilly.12 mph67%30.07 "HgN/A
7:00 AM37 °FChilly.13 mph73%30.06 "HgN/A
6:00 AM35 °FChilly.12 mph83%30.05 "HgN/A
5:00 AM36 °FChilly.12 mph87%30.03 "HgN/A
4:00 AM36 °FChilly.10 mph83%30.01 "HgN/A
Weather by CustomWeather, © 2014

See weather overviewHow to use our weather pages